KUIPER-00223

导读 | 豆包AI

KUIPER-00223是亚马逊低轨卫星互联网星座(原柯伊伯计划)的组网卫星,于2026年2月12日由法国阿丽亚娜太空完成发射。该项目计划部署3236颗低轨卫星,旨在通过近地轨道星座结合云服务,为全球未覆盖区域提供高速、低成本的互联网接入服务,推动太空通信基础设施建设,KUIPER-00223的成功发射将助力星座组网进程。

Basic Information
目录编号:
67783
目录名称:
KUIPER-00223
国际标识:
2026-030V
轨道中心:
EARTH
卫星名称:
KUIPER-00223
卫星全名:
KUIPER-00223
卫星状态:
在轨 (已飞行102 天)
发射日期:
2026-02-12 UTC
国别 :
美国 (US)
星等 :
--
Orbit Information
数据来源 国际轨道数据
星历时间: 2026-05-24T12:00:02+0800
1天前
查看轨道信息
半长轴: 6972.58km
偏心率: 0.000879
轨道倾角: 51.897°
近地点辐角 352.584°
升交点赤经 219.325°
平近点角 122.558°
近地点: 588.314km
远地点: 600.572km
周期: 96.572分钟
每日圈数: 14.911199
Detailed Information
使用方式:
暂无
2D Orbit Map
3D Orbit Map
Orbit Altitude Analysis Chart
Orbit Inclination Analysis Chart
Orbit Comprehensive Analysis Chart
View Comprehensive Chart